Starlink 31131

operational
NORAD ID: 58673 Int'l Des: 2023-211 Owner: SPXS Country: US Constellation: starlink
LEOCIRCULAR

Über Starlink 31131

Beschreibung wird geladen...

Live-Position

3D-Globus wird geladen...

Nächste Überflüge

Höhenverlauf

Altitude vs Time

uPlot chart will show altitude changes over time

Zweizeiliger Elementsatz

1 58673U 23211G 25353.56349202 .00000449 00000-0 25834-4 0 9990
2 58673 42.9994 166.9834 0001392 270.2118 89.8574 15.27578228111619
Epoch: 19. Dez. 2025 • Age: 25 hours

Aktueller Status

Höhe 486.7 km
Geschwindigkeit 7.62 km/s
Subsatellitenpunkt -19.29°S, 167.84°W
Startdatum 29. Dez. 2023
Alter 1.9 years
Typ internet

Technische Details

Klassifizierung Payload
Masse 730.00 kg
Trockenmasse 700.00 kg
Gesamtmasse 730.00 kg
Länge 0.30 m
Durchmesser 4.10 m
Spannweite 29.00 m
Form Box + pan
Hersteller SPXS
Bus-Typ Starlink V2M
Phasenstatus In Orbit
Besitzer/Staat SPXS/US

Große Konstellationen

Loading constellations...